Página principal
METAR-TAF:

METAR-TAF

Aeroportos :

Flores, Açores, Portugal

Aeroporto das Flores

latitude: 39-27N, longitude: 031-08W, altura: 28 m

Observação actual do tempo

O boletim foi feito há 4 horas e 17 minutos, às 18:00 UTC
Vento 10 kt de sul
Temperatura 14°C
Humidade 58%
Pressão 1029 hPa
Visibilidade 10 km ou mais
Poucas nuvensa uma altura de 2300 ft

METAR: LPFL 171800Z 17010KT 9999 FEW023 14/06 Q1029

Hora: 21:17 (22:17 UTC)


TAF: em falta

Observações e previsões do tempo de mais de 4000 aeroportos (mensagens METAR e TAF).

As estações disponíveis são os pontos amarelos e vermelhos sobre o mapa.

Mova o rato sobre o mapa para ver o nome da estação.

Depois clique no ponto para visualizar as observações e previsões meteorológicas.

Para alterar o mapa : clique nos botões verdes com uma cruz preta para aumentar o zoom; no botão verde com uma pitada de zoom; ou nas setas verdes para mapas adjacentes.


METAR-TAF: